Location: *
(47.6569°N, 7.4256°E)
Time: 01:36:15
(UTC+00:00)

Lacrosse 5 rocket - Pass Details

Date: 14 December 2019
Orbit: 465 x 633 km, 57.0° (Epoch: 22 January)

Event Time Altitude Azimuth Distance (km) Brightness Sun altitude
Rises 18:16:05 0° 292° (WNW) 2,753 5.8 -25.4°
Reaches altitude 10° 18:18:49 10° 308° (NW) 1,822 4.5 -25.8°
Enters shadow 18:20:51 19° 336° (NNW) 1,322 3.4 -26.2°
